Weather History for KHHF - January, 2014

Change the Weather History Date:

Sunday, January 26, 2014

  Actual Average (KPPA) Record (KPPA)
Temperature  
Mean Temperature 46 °F -  
Max Temperature 63 °F 50 °F 72 °F (1969)
Min Temperature 30 °F 23 °F 0 °F (1966)
Degree Days  
Heating Degree Days 18    
Moisture  
Dew Point 24 °F    
Average Humidity 47    
Maximum Humidity 70    
Minimum Humidity 21    
Precipitation  
Precipitation 0.00 in - - ()
Sea Level Pressure  
Sea Level Pressure 29.83 in    
Wind  
Wind Speed 7 mph (North)    
Max Wind Speed 31 mph    
Max Gust Speed 45 mph    
Visibility 10 miles    
Events      
Averages and records for this station are not official NWS values.
T = Trace of Precipitation, MM = Missing Value Source: NWS Daily Summary

Daily Weather History Graph

Daily Weather History Graph

Search for Another Location

Airport or City:

Trip Planner

Search our weather history database for the weather conditions in past years. The results will help you decide how hot, cold, wet, or windy it might be!

Date:

Astronomy

Jan. 26, 2014 Rise Set
Actual Time 7:46 AM CST 6:02 PM CST
Civil Twilight 7:18 AM CST 6:29 PM CST
Nautical Twilight 6:48 AM CST 7:00 PM CST
Astronomical Twilight 6:17 AM CST 7:31 PM CST
Moon 3:24 AM CST (1/26) 1:54 PM CST (1/26)
Length of Visible Light 11h 10m
Length of Day
10h 16m
Waning Crescent, 23% of the Moon is Illuminated
Jan 26
Waning Crescent
Jan 30
New
Feb 6
First Quarter
Feb 14
Full
Feb 22
Last Quarter

Hourly Weather History & Observations

Time (CST) Temp. Windchill Dew Point Humidity Pressure Visibility Wind Dir Wind Speed Gust Speed Precip Events Conditions
12:15 AM 34.9 °F 29.9 °F 24.1 °F 65% 29.90 in 10.0 mi WSW 5.8 mph - N/A   Clear
12:35 AM 35.1 °F 28.6 °F 24.4 °F 65% 29.89 in 10.0 mi SW 8.1 mph - N/A   Clear
12:55 AM 35.6 °F 29.2 °F 24.4 °F 64% 29.88 in 10.0 mi SW 8.1 mph - N/A   Clear
1:15 AM 35.1 °F 31.0 °F 24.3 °F 65% 29.87 in 10.0 mi WSW 4.6 mph - N/A   Clear
1:35 AM 37.2 °F 31.9 °F 24.8 °F 61% 29.85 in 10.0 mi West 6.9 mph - N/A   Clear
1:55 AM 39.4 °F 33.8 °F 25.3 °F 57% 29.84 in 10.0 mi WSW 8.1 mph - N/A   Clear
2:15 AM 37.0 °F 31.6 °F 24.8 °F 61% 29.84 in 10.0 mi WSW 6.9 mph - N/A   Clear
2:35 AM 36.5 °F 31.8 °F 24.8 °F 63% 29.83 in 10.0 mi WSW 5.8 mph - N/A   Clear
2:55 AM 36.0 °F 32.1 °F 24.4 °F 63% 29.82 in 10.0 mi WSW 4.6 mph - N/A   Clear
3:15 AM 35.6 °F 30.7 °F 24.3 °F 63% 29.81 in 10.0 mi WSW 5.8 mph - N/A   Clear
3:35 AM 35.2 °F 32.4 °F 24.3 °F 64% 29.81 in 10.0 mi West 3.5 mph - N/A   Clear
3:55 AM 36.5 °F 31.0 °F 24.6 °F 62% 29.80 in 10.0 mi West 6.9 mph - N/A   Clear
4:15 AM 36.5 °F - 24.3 °F 61% 29.80 in 10.0 mi Calm Calm - N/A   Clear
4:35 AM 35.8 °F 33.0 °F 24.1 °F 62% 29.79 in 10.0 mi WSW 3.5 mph - N/A   Clear
4:55 AM 34.9 °F - 23.9 °F 64% 29.79 in 10.0 mi Calm Calm - N/A   Clear
5:15 AM 34.7 °F - 23.7 °F 64% 29.78 in 10.0 mi Calm Calm - N/A   Clear
5:35 AM 35.8 °F 33.0 °F 23.9 °F 62% 29.77 in 10.0 mi West 3.5 mph - N/A   Clear
5:55 AM 32.4 °F - 23.0 °F 68% 29.77 in 10.0 mi Calm Calm - N/A   Clear
6:15 AM 31.5 °F - 22.6 °F 70% 29.77 in 10.0 mi Calm Calm - N/A   Clear
6:35 AM 30.9 °F 24.3 °F 22.3 °F 70% 29.79 in 10.0 mi North 6.9 mph - N/A   Clear
6:55 AM 32.2 °F - 22.8 °F 68% 29.79 in 10.0 mi Calm Calm - N/A   Clear
7:15 AM 32.2 °F - 23.0 °F 69% 29.79 in 10.0 mi Calm Calm - N/A   Clear
7:35 AM 33.1 °F - 21.9 °F 64% 29.79 in 10.0 mi Calm Calm - N/A   Clear
7:55 AM 35.1 °F 30.1 °F 23.4 °F 62% 29.80 in 10.0 mi West 5.8 mph - N/A   Clear
8:15 AM 36.1 °F 32.3 °F 23.9 °F 61% 29.80 in 10.0 mi WNW 4.6 mph - N/A   Clear
8:35 AM 37.9 °F 34.4 °F 24.8 °F 59% 29.80 in 10.0 mi NW 4.6 mph - N/A   Clear
8:55 AM 40.5 °F 37.3 °F 25.7 °F 56% 29.81 in 10.0 mi NW 4.6 mph - N/A   Clear
9:15 AM 43.5 °F 40.9 °F 26.1 °F 50% 29.81 in 10.0 mi NW 4.6 mph - N/A   Clear
9:35 AM 48.2 °F - 25.7 °F 42% 29.81 in 10.0 mi North 11.5 mph 16.1 mph N/A   Clear
9:55 AM 51.6 °F - 25.2 °F 36% 29.82 in 10.0 mi NNE 17.3 mph 28.8 mph N/A   Clear
10:15 AM 52.7 °F - 25.3 °F 35% 29.82 in 10.0 mi North 13.8 mph 26.5 mph N/A   Clear
10:35 AM 54.5 °F - 25.5 °F 33% 29.83 in 10.0 mi North 15.0 mph 18.4 mph N/A   Clear
10:55 AM 56.3 °F - 25.5 °F 31% 29.83 in 10.0 mi NNE 20.7 mph 28.8 mph N/A   Clear
11:15 AM 57.2 °F - 26.2 °F 31% 29.83 in 10.0 mi NNE 16.1 mph 26.5 mph N/A   Clear
11:35 AM 59.2 °F - 26.8 °F 29% 29.83 in 10.0 mi NNE 17.3 mph 24.2 mph N/A   Clear
11:55 AM 59.4 °F - 27.1 °F 29% 29.82 in 10.0 mi NNE 18.4 mph 24.2 mph N/A   Clear
12:15 PM 60.3 °F - 27.5 °F 29% 29.81 in 10.0 mi NNE 16.1 mph 24.2 mph N/A   Clear
12:35 PM 60.8 °F - 27.5 °F 28% 29.80 in 10.0 mi NE 13.8 mph 24.2 mph N/A   Clear
12:55 PM 61.2 °F - 27.7 °F 28% 29.79 in 10.0 mi NNE 12.7 mph 19.6 mph N/A   Clear
1:15 PM 61.7 °F - 27.5 °F 27% 29.79 in 10.0 mi NNE 10.4 mph - N/A   Clear
1:35 PM 62.2 °F - 27.5 °F 27% 29.77 in 10.0 mi NE 12.7 mph 18.4 mph N/A   Clear
1:55 PM 62.2 °F - 27.5 °F 27% 29.76 in 10.0 mi NE 6.9 mph - N/A   Clear
2:15 PM 62.6 °F - 26.6 °F 26% 29.75 in 10.0 mi North 15.0 mph - N/A   Clear
2:35 PM 63.3 °F - 25.2 °F 23% 29.74 in 10.0 mi North 11.5 mph - N/A   Clear
2:55 PM 63.5 °F - 24.6 °F 23% 29.74 in 10.0 mi NE 8.1 mph - N/A   Clear
3:15 PM 63.9 °F - 24.4 °F 22% 29.73 in 10.0 mi NNE 11.5 mph - N/A   Clear
3:35 PM 63.3 °F - 23.2 °F 22% 29.73 in 10.0 mi North 6.9 mph - N/A   Clear
3:55 PM 63.7 °F - 22.6 °F 21% 29.73 in 10.0 mi NNE 8.1 mph - N/A   Clear
4:15 PM 63.5 °F - 23.7 °F 22% 29.73 in 10.0 mi North 9.2 mph - N/A   Clear
4:35 PM 62.8 °F - 23.5 °F 22% 29.75 in 10.0 mi North 5.8 mph - N/A   Clear
4:55 PM 62.6 °F - 23.4 °F 22% 29.75 in 10.0 mi North 6.9 mph - N/A   Clear
5:15 PM 61.7 °F - 23.5 °F 23% 29.75 in 10.0 mi North 8.1 mph - N/A   Clear
5:35 PM 59.9 °F - 23.7 °F 25% 29.75 in 10.0 mi NNE 4.6 mph - N/A   Clear
5:55 PM 57.2 °F - 23.9 °F 28% 29.76 in 10.0 mi NE 5.8 mph - N/A   Clear
6:15 PM 57.0 °F - 23.7 °F 28% 29.77 in 10.0 mi Calm Calm - N/A   Clear
6:35 PM 53.2 °F - 23.7 °F 32% 29.79 in 10.0 mi Calm Calm - N/A   Clear
6:55 PM 50.0 °F - 23.0 °F 35% 29.80 in 10.0 mi Calm Calm - N/A   Clear
7:15 PM 43.2 °F - 22.1 °F 43% 29.82 in 10.0 mi Calm Calm - N/A   Clear
7:35 PM 47.1 °F - 23.5 °F 40% 29.83 in 10.0 mi Calm Calm - N/A   Clear
7:55 PM 45.5 °F - 23.7 °F 42% 29.84 in 10.0 mi Calm Calm - N/A   Clear
8:15 PM 40.1 °F - 22.3 °F 49% 29.85 in 10.0 mi Calm Calm - N/A   Clear
8:35 PM 36.0 °F - 20.3 °F 53% 29.87 in 10.0 mi Calm Calm - N/A   Clear
8:55 PM 38.3 °F 34.8 °F 21.0 °F 50% 29.89 in 10.0 mi SSW 4.6 mph - N/A   Clear
9:15 PM 34.7 °F 31.8 °F 20.1 °F 55% 29.90 in 10.0 mi SSW 3.5 mph - N/A   Clear
9:35 PM 34.7 °F - 20.7 °F 57% 29.91 in 10.0 mi Calm Calm - N/A   Clear
9:55 PM 33.8 °F - 21.0 °F 60% 29.92 in 10.0 mi Calm Calm - N/A   Clear
10:15 PM 40.1 °F 29.5 °F 28.0 °F 62% 29.98 in 4.0 mi NE 25.3 mph 44.9 mph N/A   Haze
10:35 PM 37.6 °F 25.0 °F 25.3 °F 61% 30.01 in 4.0 mi NE 31.1 mph 41.4 mph N/A   Haze
10:55 PM 36.5 °F 24.9 °F 23.5 °F 59% 30.04 in 7.0 mi NNE 24.2 mph 33.4 mph N/A   Scattered Clouds
11:15 PM 34.7 °F 22.5 °F 22.1 °F 60% 30.07 in 7.0 mi NE 24.2 mph 34.5 mph N/A   Clear
11:35 PM 33.8 °F 22.8 °F 17.1 °F 50% 30.09 in 7.0 mi NE 18.4 mph 32.2 mph N/A   Clear
11:55 PM 32.9 °F 23.7 °F 15.3 °F 48% 30.12 in 10.0 mi NE 12.7 mph 19.6 mph N/A   Clear